Regional Weather Roundup
Issued by NWS

Home | Current Version | Previous Version | Graphics & Text | Print | Product List | Glossary On
Versions: 1 2 3 4 5 6 7 8 9 10 11 12 13 14 15 16 17 18 19 20 21 22 23 24 25 26 27 28 29 30 31 32 33 34 35 36 37 38 39 40 41 42 43 44 45 46 47 48 49 50
284
ASUS45 KBOI 132110
RWRID

IDAHO REGIONAL WEATHER ROUNDUP
NATIONAL WEATHER SERVICE BOISE ID
200 PM MST WED DEC 13 2017

NOTE: "FAIR" INDICATES FEW OR NO CLOUDS BELOW 12000 FEET
WITH NO SIGNIFICANT WEATHER AND/OR OBSTRUCTIONS TO VISIBILITY

IDZ012-014-132200-
SOUTHWEST IDAHO


CITY           SKY/WX    TMP DP  RH WIND       PRES   REMARKS
BOISE          CLOUDY    25  21  85 NW8       30.39F FOG     WCI  16
CALDWELL       NOT AVBL
MOUNTAIN HOME  CLOUDY    23  23 100 NW3       30.39F FOG
$$

IDZ016-017-132200-
SOUTHCENTRAL IDAHO


CITY           SKY/WX    TMP DP  RH WIND       PRES   REMARKS
BURLEY         CLOUDY    25  21  85 CALM      30.28F
JEROME         CLOUDY    26  20  77 W5        30.31F HAZE    WCI  20
TWIN FALLS     CLOUDY    25  22  88 W3        30.30F FOG
$$

IDZ019>023-132200-
SOUTHEAST IDAHO


CITY           SKY/WX    TMP DP  RH WIND       PRES   REMARKS
IDAHO FALLS    CLOUDY    26  21  81 W3        30.24F
POCATELLO      CLOUDY    24  22  91 SW5       30.27F WCI  18
REXBURG        CLOUDY    30  24  78 NW3       30.22F
$$

IDZ006-010-011-018-031-032-132200-
CENTRAL IDAHO MOUNTAINS


CITY           SKY/WX    TMP DP  RH WIND       PRES   REMARKS
MCCALL         CLOUDY    32  28  85 CALM      30.26F
HAILEY         PTSUNNY   32  23  69 SE9       30.22F WCI  24
STANLEY          N/A     27  23  85 CALM      30.24F
SALMON         LGT SNOW  26  21  81 CALM      30.35F
CHALLIS        CLOUDY    27  22  81 CALM      30.27F
$$

IDZ002-004-006-007-026-132200-
NORTHERN IDAHO


CITY           SKY/WX    TMP DP  RH WIND       PRES   REMARKS
LEWISTON       CLOUDY    33  26  75 NW8       30.54R WCI  26
LOWELL           N/A     34  31  88 CALM      30.48R
COEUR D`ALENE  CLOUDY    31  26  82 CALM      30.48F
MULLAN PASS    FOG       21  20  96 N6        30.29R VSB 3/4 WCI  13
$$




USA.gov is the U.S. government's official web portal to all federal, state and local government web resources and services.